Regional Weather Roundup
Issued by NWS Cleveland, OH

Home | Current Version | Previous Version | Graphics & Text | Print | Product List | Glossary On
Versions: 1 2 3 4 5 6 7 8 9 10 11 12 13 14 15 16 17 18 19 20 21 22 23 24 25 26 27 28 29 30 31 32 33 34 35 36 37 38 39 40 41 42 43 44 45 46 47 48 49 50
000
ASUS41 KCLE 221210
RWRCLE
OHIO REGIONAL WEATHER ROUNDUP
NATIONAL WEATHER SERVICE WILMINGTON, OH
800 AM EDT WED MAR 22 2017

NOTE: "FAIR" INDICATES FEW OR NO CLOUDS BELOW 12,000 FEET WITH NO
SIGNIFICANT WEATHER AND/OR OBSTRUCTIONS TO VISIBILITY.

OHZ001>008-015>018-024>027-034-035-043-044-221300-
   NORTHWEST OHIO

CITY           SKY/WX    TMP DP  RH WIND       PRES   REMARKS
DEFIANCE       FAIR      20  10  65 N12       30.49R WCI   8
FINDLAY        FAIR      22   9  57 N16       30.45R WCI   8
TOLEDO EXPRESS FAIR      20  10  65 N7        30.48R WCI  11
TOLEDO EXEC    FAIR      22  11  62 N13       30.48R WCI  10
LIMA           FAIR      21  12  68 N10       30.44R WCI  10
$$

OHZ009>014-019>023-028>033-038-089-221300-
   NORTHEAST OHIO

CITY           SKY/WX    TMP DP  RH WIND       PRES   REMARKS
CLE-HOPKINS    MOCLDY    26  15  63 N15       30.44R WCI  14
CLE-LAKEFRONT  MOCLDY    27  18  69 N22       30.41R WCI  13
CUY CO. ARPT   FLURRIES  27  19  74 N13G23    30.40R WCI  16
LORAIN-ELYRIA  MOCLDY    25  14  63 NE17G26   30.42R WCI  12
ASHTABULA      CLOUDY    24  11  57 N9G18     30.38R WCI  14
AKRON-CANTON   FLURRIES  25  16  68 N13       30.35R WCI  14
WOOSTER        CLOUDY    24  15  68 N13       30.38R WCI  12
MANSFIELD      MOCLDY    23  14  68 N15       30.38R WCI  10
YOUNGSTOWN     FLURRIES  24  11  57 N18G25    30.33R WCI  10
$$

OHZ042-051>053-060>062-070>072-077>081-221300-
  SOUTHWEST OHIO

CITY           SKY/WX    TMP DP  RH WIND       PRES   REMARKS
CINC-COVINGTON FAIR      29  16  58 N15       30.39R WCI  18
CINC-LUNKEN    FAIR      29  18  63 N10       30.43R WCI  20
HAMILTON       FAIR      28  17  63 NE9       30.44R WCI  19
DAYTON         FAIR      23  14  68 N13       30.42R WCI  11
WRIGHT-PAT AFB FAIR      25  15  66 N12       30.43R WCI  14
DAYTON GENERAL FAIR      25  15  66 NE14      30.40R WCI  13
WILMINGTON     MOCLDY    26  18  71 NE10G23   30.39R WCI  16
$$

OHZ036-037-039>041-045>050-054>059-063>069-073>076-082>088-221300-
  CENTRAL AND SOUTHEAST OHIO

CITY           SKY/WX    TMP DP  RH WIND       PRES   REMARKS
COLUMBUS       FAIR      27  14  58 NE14      30.40R WCI  16
OSU AIRPORT    FAIR      24  14  65 N16       30.40R WCI  11
BOLTON FIELD   FAIR      25  15  65 N15       30.41R WCI  13
RICKENBACK AFB FAIR      26  15  61 NE14G21   30.40R WCI  15
NEWARK         FAIR      27  13  55 NE10      30.38R WCI  17
MARION         FAIR      22  14  71 N12       30.41R WCI  10
LANCASTER      FAIR      29  17  61 N10       30.39R WCI  20
ZANESVILLE     MOCLDY    28  12  51 N9G21     30.37R WCI  19
NEW PHILLY     MOCLDY    27  15  61 N9        30.38R WCI  18
$$




USA.gov is the U.S. government's official web portal to all federal, state and local government web resources and services.